Regional Weather Roundup
Issued by NWS

Home | Current Version | Previous Version | Text Only | Print | Product List | Glossary On
Versions: 1 2 3 4 5 6 7 8 9 10 11 12 13 14 15 16 17 18 19 20 21 22 23 24 25 26 27 28 29 30 31 32 33 34 35 36 37 38 39 40 41 42 43 44 45 46 47 48 49 50
000
ASUS43 KMPX 181710
RWRMN
WEATHER ROUNDUP FOR MINNESOTA
NATIONAL WEATHER SERVICE TWIN CITIES/CHANHASSEN MN
1100 AM CST MON DEC 18 2017


NOTE: "FAIR" INDICATES FEW OR NO CLOUDS BELOW 12,000 FEET WITH NO
SIGNIFICANT WEATHER AND/OR OBSTRUCTIONS TO VISIBILITY. N/A MEANS
CURRENT SKY AND/OR WEATHER CONDITIONS ARE NOT AVAILABLE.

MNZ060>063-068>070-181800-
   Twin Cities Metro

CITY           SKY/WX    TMP DP  RH WIND       PRES   REMARKS
TWIN CITIES    CLOUDY    34  28  79 SW9       29.76F WCI  27
ST PAUL        CLOUDY    32  27  81 SE7       29.78F WCI  26
CRYSTAL        CLOUDY    33  25  72 S10       29.74F WCI  25
BLAINE         PTSUNNY   36  28  75 S12G17    29.74F
LAKEVILLE      CLOUDY    32  28  86 S9G16     29.76F WCI  24
EDEN PRAIRIE   CLOUDY    34  27  75 SW9       29.75F WCI  27
SOUTH ST PAUL  CLOUDY    32  27  81 S8        29.76F WCI  25
LAKE ELMO      FAIR      32  28  86 S12       29.76F WCI  23
$$
MNZ001>005-007-008-013>017-022>024-027-028-181800-
   Northwest Minnesota

CITY           SKY/WX    TMP DP  RH WIND       PRES   REMARKS
BEMIDJI        CLOUDY    30  27  88 S8        29.56F WCI  23
HALLOCK        MIX PCPN  34  30  86 S12       29.51R WCI  25
ROSEAU         LGT RAIN  34  28  80 S15       29.49F WCI  24
WARROAD        DRIZZLE   32  28  86 S12       29.49F WCI  23
THIEF RVR FALL LGT SNOW  28  27  93 SW16      29.56R FOG     WCI  17
CROOKSTON      LGT SNOW  28  28 100 SW9       29.58S WCI  20
FOSSTON        CLOUDY    27  25  93 S13       29.57S WCI  16
DETROIT LAKES  CLOUDY    32  28  86 SW8       29.61S WCI  25
MOORHEAD       MOSUNNY   30  27  86 CALM      29.63R
PARK RAPIDS    CLOUDY    30  27  88 SW8       29.59F WCI  22
MAHNOMEN       CLOUDY    29  26  88 S15       29.57F WCI  18
$$
MNZ006-009>011-018-025>026-181800-
   North Central Minnesota

CITY           SKY/WX    TMP DP  RH WIND       PRES   REMARKS
BAUDETTE       MIX PCPN  31  27  85 SW8       29.50F WCI  23
FLAG ISLAND    CLOUDY    30  27  86 SW9       29.46S WCI  22
INTL FALLS     CLOUDY    32  28  85 SW10G18   29.52F FOG     WCI  24
WASKISH        CLOUDY    34  28  80 SW10G17   29.54S WCI  26
BIG FORK       PTSUNNY   30  27  86 SW13      29.56F WCI  20
LONGVILLE      CLOUDY    30  27  86 S6        29.60F WCI  24
GRAND RAPIDS   CLOUDY    30  25  81 S7        29.62F WCI  23
CRANE LAKE     PTSUNNY   30  27  86 S7        29.57F WCI  23
ORR            CLOUDY    30  25  80 S10       29.54F WCI  21
COOK           CLOUDY    30  27  86 SW9       29.58F WCI  22
WALKER         CLOUDY    30  26  86 SW7       29.59F WCI  23
$$
MNZ012-019>021-037-181800-
   Northeast Minnesota

CITY           SKY/WX    TMP DP  RH WIND       PRES   REMARKS
DULUTH         CLOUDY    27  26  96 SW15      29.64F FOG     WCI  15
ELY            CLOUDY    28  27  93 SW10      29.58F WCI  19
HIBBING        CLOUDY    27  24  89 VRB7      29.60F WCI  19
EVELETH        CLOUDY    28  22  81 SW7       29.62F WCI  20
DULUTH HARBOR  CLOUDY    30  27  86 SW16      29.69F FOG     WCI  19
TWO HARBORS    CLOUDY    32  27  80 SW8       29.64F HAZE    WCI  25
SILVER BAY     CLOUDY    28  27  93 SW8       29.63F FOG     WCI  20
GRAND MARAIS     N/A     34  30  85 SW23      29.64F WCI  22
G MARAIS ARPRT FOG       25  21  86 S5        29.58F VSB 1/2 WCI  19
$$
MNZ029>031-032-039>041-046>048-054>057-064-181800-
   West Central Minnesota

CITY           SKY/WX    TMP DP  RH WIND       PRES   REMARKS
FERGUS FALLS   CLOUDY    30  28  93 SW9       29.68S WCI  22
WHEATON        CLOUDY    36  27  69 S10G16    29.68S
MORRIS         CLOUDY    34  30  86 SW10      29.67S WCI  26
ALEXANDRIA     CLOUDY    31  27  85 SW12      29.66F WCI  22
ELBOW LAKE     PTSUNNY   32  29  91 W8        29.67S WCI  24
WADENA         CLOUDY    32  27  80 SW7       29.62F WCI  26
GLENWOOD       CLOUDY    30  28  93 SW9       29.67F WCI  22
APPLETON       CLOUDY    37  28  70 SW10      29.70S
BENSON         CLOUDY    36  28  75 W10       29.70F
ORTONVILLE     CLOUDY    36  27  69 SW7       29.69S
MADISON        CLOUDY    39  30  70 SW14      29.70F
WILLMAR        FAIR      36  30  80 SW12      29.71F
$$
MNZ033>034-036-042>043-049>051-058-059-181800-
   Central Minnesota

CITY           SKY/WX    TMP DP  RH WIND       PRES   REMARKS
ST CLOUD       CLOUDY    32  27  81 S9        29.70F WCI  24
SAUK CENTRE    FAIR      32  28  84 SW8       29.67F WCI  24
PAYNESVILLE    CLOUDY    32  30  90 SW9       29.70F WCI  25
AITKIN         CLOUDY    30  25  80 S8        29.63F WCI  23
PINE RIVER     CLOUDY    30  25  80 SW6       29.66F WCI  24
BRAINERD       CLOUDY    32  26  78 SW12      29.65F WCI  23
STAPLES        CLOUDY    32  27  80 SW8       29.64S WCI  25
LONG PRAIRIE   FAIR      32  28  86 S8        29.66F WCI  25
LITTLE FALLS   CLOUDY    32  23  69 S7        29.68F WCI  26
LITCHFIELD     CLOUDY    36  30  80 SW5       29.71F
BUFFALO        CLOUDY    32  27  80 S8        29.74F WCI  25
MAPLE LAKE     CLOUDY    34  29  83 S8        29.73F WCI  27
HUTCHINSON     CLOUDY    34  30  85 S5        29.74F WCI  30
$$
MNZ037-044-045-052-053-181800-
   East Central Minnesota

CITY           SKY/WX    TMP DP  RH WIND       PRES   REMARKS
PRINCETON      CLOUDY    34  27  75 S9        29.72F WCI  26
MORA           CLOUDY    32  27  80 SW6       29.72F WCI  26
CAMBRIDGE      CLOUDY    34  27  75 S8        29.72F WCI  27
RUSH CITY      CLOUDY    31  26  81 S7        29.73F WCI  24
MOOSE LAKE     CLOUDY    30  27  86 S8        29.67F FOG     WCI  23
HINCKLEY       FAIR      30  27  86 S5        29.71F FOG     WCI  25
CLOQUET        CLOUDY    28  25  86 S10       29.65F FOG     WCI  19
MCGREGOR       CLOUDY    32  28  86 S13       29.64F WCI  22
$$
MNZ071>073-080-081-089-090-097-098-181800-
   Southwest Minnesota

CITY           SKY/WX    TMP DP  RH WIND       PRES   REMARKS
MONTEVIDEO     CLOUDY    37  32  81 W9        29.71F
GRANITE FALLS  CLOUDY    38  31  74 SW12      29.74F
CANBY          CLOUDY    38  28  67 SW9       29.72F
MARSHALL       CLOUDY    39  28  64 SW17      29.73F
REDWOOD FALLS  CLOUDY    37  30  75 SW13      29.73F
OLIVIA         CLOUDY    34  30  86 SW10      29.72F WCI  26
PIPESTONE      CLOUDY    34  28  80 W12       29.75F WCI  25
WINDOM           N/A     36  21  55 SW10      29.77F
WORTHINGTON    SUNNY     34  29  82 SW14      29.79S WCI  25
JACKSON        CLOUDY    34  30  86 SW12      29.79F WCI  25
TRACY          CLOUDY    37  30  75 SW15      29.73F
SLAYTON        CLOUDY    33  29  82 SW13      29.77F WCI  24
$$
MNZ065>067-074>077-082>085-091>093-181800-
   South Central Minnesota

CITY           SKY/WX    TMP DP  RH WIND       PRES   REMARKS
MANKATO        CLOUDY    33  28  81 SW12      29.78F WCI  24
NEW ULM        CLOUDY    36  27  69 SW9       29.76F
ST JAMES       CLOUDY    36  28  75 SW10      29.78F
FAIRMONT       SUNNY     34  28  79 SW15      29.80F WCI  24
GLENCOE        CLOUDY    33  30  88 S8        29.74F WCI  26
FARIBAULT      CLOUDY    34  28  80 S10G16    29.78F WCI  26
OWATONNA       CLOUDY    32  28  86 S10       29.79F WCI  24
WASECA         CLOUDY    32  28  86 S14       29.80F WCI  22
ALBERT LEA     CLOUDY    34  27  75 SW8       29.81F WCI  27
$$
MNZ078>079-086>088-094>096-181800-
   Southeast Minnesota

CITY           SKY/WX    TMP DP  RH WIND       PRES   REMARKS
ROCHESTER      CLOUDY    29  28  96 S17G23    29.81F FOG     WCI  17
RED WING       CLOUDY    34  27  75 S5        29.81F WCI  30
STANTON        CLOUDY    34  29  80 S9        29.78F WCI  27
DODGE CENTER   CLOUDY    28  28 100 S8        29.80F FOG     WCI  20
WINONA         CLOUDY    32  28  86 SW3       29.86F
AUSTIN         PTSUNNY   28  27  93 S8        29.82F FOG     WCI  20
PRESTON        CLOUDY    28  27  96 S9        29.84F FOG     WCI  20
$$
ABBREVIATIONS USED IN REMARKS
   TC - TEMPERATURES IN CELSIUS
  WCI - WIND CHILL INDEX
   HX - HEAT INDEX
  VSB - VISIBILITY
$$



USA.gov is the U.S. government's official web portal to all federal, state and local government web resources and services.